Volver al catálogo

STARLINK-31534

ActivoComunicacionesVLEO
NORAD 59398·PAYLOAD·🇺🇸 United States

Lanzado Apr 5, 2024 desde Cape Canaveral Space Force Station

Loading…

Próximos Pases (próximas 24 horas)

TLE

ActualizadoSource: CelesTrak SupGP

Época: Sep 14, 2026, 21:09 UTC

1 59398C 24064A   26257.88173611  .00041369  00000+0  14984-2 0  2574
2 59398  43.0029  67.3472 0001591 273.2736 119.6811 15.27557735    14

Sigue STARLINK-31534 en tiempo real con AllMySat

Download on the App Store